Preview of NWS' New Version of Forecast
This preview is not operational and should not be used for support decisions.

Regional Weather Roundup (RWR)

Issued by National Weather Service (NWS)

                            
000
ASUS44 KMEG 201510
RWRTN 
TENNESSEE HOURLY STATE WEATHER ROUNDUP
NATIONAL WEATHER SERVICE MEMPHIS TN
1000 AM CDT TUE AUG 20 2019

TNZ002-004-019-021-049-052-054-088>092-201600-
WEST TENNESSEE
  
CITY           SKY/WX    TMP DP  RH WIND       PRES   REMARKS
MEMPHIS INTL   FAIR      88  76  67 VRB5      30.09R HX  99           
NWS MEMPHIS      N/A     89 N/A N/A MISG        N/A                   
JACKSON        FAIR      86  77  74 N3        30.11R HX  97           
DYERSBURG      FAIR      87  79  76 NW3       30.10R HX 101           
SOMERVILLE     SUNNY     88  75  66 SW5       30.08S HX  97           
COVINGTON      SUNNY     86  79  79 CALM      30.09R HX  99           
UNION CITY     SUNNY     86  79  79 VRB3      30.08S HX  99           
BOLIVAR        SUNNY     86  75  70 E3        30.09S HX  95           
PARIS          SUNNY     88  77  70 SW3       30.10S HX 100           
HUNTINGDON     SUNNY     86  77  74 CALM      30.11R HX  97           
LEXINGTON      SUNNY     84  75  74 CALM      30.10R HX  92           
SAVANNAH       SUNNY     86  77  74 CALM      30.11R HX  97           
$$

TNZ008-025-027-028-033-062-065-066-201600-
NORTH MIDDLE TENNESSEE
  
CITY           SKY/WX    TMP DP  RH WIND       PRES   REMARKS
NASHVILLE      FAIR      86  71  60 SW6       30.13R HX  91           
DICKSON        SUNNY     86  73  66 CALM      30.12R HX  93           
PORTLAND       SUNNY     86  75  70 S8        30.12R HX  95           
CLARKSVILLE    FAIR      86  76  71 CALM      30.11R HX  96           
LEBANON        SUNNY     84  72  65 W5        30.11R                  
MURFREESBORO   SUNNY     84  72  65 CALM      30.12R                  
COOKEVILLE     SUNNY     84  70  61 SW5       30.15R                  
LIVINGSTON     SUNNY     82  70  65 W8        30.16R                  
GALLATIN       SUNNY     86  73  66 VRB3      30.15R HX  93           
CROSSVILLE     FAIR      80  66  62 VRB3      30.21R                  
ROCKWOOD       SUNNY     81  66  61 CALM      30.19R                  
$$

TNZ061-075-076-078-094-096-097-201600-
SOUTH MIDDLE TENNESSEE
  
CITY           SKY/WX    TMP DP  RH WIND       PRES   REMARKS
LAWRENCEBURG   SUNNY     82  73  74 VRB5      30.14R                  
LEWISBURG      SUNNY     84  72  65 CALM      30.13R                  
FAYETTEVILLE   SUNNY     82  70  65 SW5       30.14R                  
TULLAHOMA      SUNNY     82  72  69 VRB3      30.15R                  
WINCHESTER     SUNNY     84  70  61 CALM      30.14R                  
MCMINNVILLE    SUNNY     82  70  65 VRB3      30.15R                  
COLUMBIA       SUNNY     82  77  83 CALM      30.12R HX  91           
SHELBYVILLE    SUNNY     84  72  65 W3        30.14R                  
$$

TNZ017-018-042-046-047-201600-
NORTHEAST TENNESSEE
  
CITY           SKY/WX    TMP DP  RH WIND       PRES   REMARKS
TRI CITIES     FAIR      81  67  62 E3        30.18R                  
ELIZABETHTON   FAIR      82  66  57 CALM      30.17S                  
GREENEVILLE    SUNNY     81  68  65 CALM      30.17S                  
$$

TNZ012-013-036-069-073-074-201600-
CENTRAL EAST TENNESSEE
  
CITY           SKY/WX    TMP DP  RH WIND       PRES   REMARKS
KNOXVILLE      FAIR      83  67  58 NW6       30.14R                  
OAK RIDGE      FAIR      83  68  60 VRB6      30.17R                  
DOWNTOWN KNOXV SUNNY     84  70  61 CALM      30.15R                  
GATLINBURG     SUNNY     84  66  54 VRB3      30.14R                  
MORRISTOWN     SUNNY     82  68  61 VRB3      30.16R                  
JACKSBORO      MOSUNNY   79  72  78 CALM      30.20R                  
$$

TNZ083-085-099-201600-
SOUTHEAST TENNESSEE
  
CITY           SKY/WX    TMP DP  RH WIND       PRES   REMARKS
CHATTANOOGA    FAIR      84  70  62 VRB3      30.14R                  
DAYTON         SUNNY     84  68  58 S5G12     30.14R                  
$$

SKY/WX REPORTED AS FAIR MEANS FEW OR NO CLOUDS BELOW
12 THOUSAND FEET.